Weather History for KFKN - December, 2013

Change the Weather History Date:

Friday, December 20, 2013

  Actual Average (KSFQ) Record (KSFQ)
Temperature  
Mean Temperature 55 °F -  
Max Temperature 69 °F 51 °F 70 °F (1957)
Min Temperature 41 °F 33 °F 14 °F (1950)
Degree Days  
Heating Degree Days 10    
Growing Degree Days 5 (Base 50)    
Moisture  
Dew Point 46 °F    
Average Humidity 74    
Maximum Humidity 94    
Minimum Humidity 53    
Precipitation  
Precipitation 0.00 in - - ()
Sea Level Pressure  
Sea Level Pressure 30.19 in    
Wind  
Wind Speed 6 mph (SSW)    
Max Wind Speed 13 mph    
Max Gust Speed 18 mph    
Visibility 10 miles    
Events      
Averages and records for this station are not official NWS values.
T = Trace of Precipitation, MM = Missing Value Source: NWS Daily Summary

Daily Weather History Graph

Daily Weather History Graph

Search for Another Location

Airport or City:

Trip Planner

Search our weather history database for the weather conditions in past years. The results will help you decide how hot, cold, wet, or windy it might be!

Date:

Astronomy

Dec. 20, 2013 Rise Set
Actual Time 7:15 AM EST 4:54 PM EST
Civil Twilight 6:46 AM EST 5:23 PM EST
Nautical Twilight 6:14 AM EST 5:56 PM EST
Astronomical Twilight 5:42 AM EST 6:27 PM EST
Moon 8:09 PM EST (12/20) 9:12 AM EST (12/20)
Length of Visible Light 10h 36m
Length of Day
9h 38m
Waning Gibbous, 90% of the Moon is Illuminated
Dec 20
Waning Gibbous
Dec 25
Last Quarter
Jan 1
New
Jan 7
First Quarter
Jan 15
Full

Hourly Weather History & Observations

Time (EST) Temp. Windchill Dew Point Humidity Pressure Visibility Wind Dir Wind Speed Gust Speed Precip Events Conditions
12:15 AM 44.6 °F 42.2 °F 30.2 °F 57% 30.23 in 10.0 mi South 4.6 mph - N/A   Clear
12:35 AM 44.6 °F 42.2 °F 30.2 °F 57% 30.22 in 10.0 mi South 4.6 mph - N/A   Clear
12:55 AM 44.6 °F 41.4 °F 30.2 °F 57% 30.22 in 10.0 mi South 5.8 mph - N/A   Clear
1:15 AM 42.8 °F 39.3 °F 32.0 °F 66% 30.21 in 10.0 mi South 5.8 mph - N/A   Clear
1:35 AM 44.6 °F 41.4 °F 32.0 °F 61% 30.22 in 10.0 mi South 5.8 mph - N/A   Clear
1:55 AM 46.4 °F 44.3 °F 30.2 °F 53% 30.23 in 10.0 mi SW 4.6 mph - N/A   Clear
2:15 AM 44.6 °F - 33.8 °F 66% 30.23 in 10.0 mi Calm Calm - N/A   Clear
2:35 AM 44.6 °F 41.4 °F 33.8 °F 66% 30.23 in 10.0 mi South 5.8 mph - N/A   Clear
2:55 AM 42.8 °F 39.3 °F 33.8 °F 70% 30.23 in 10.0 mi South 5.8 mph - N/A   Clear
3:15 AM 44.6 °F 40.2 °F 33.8 °F 66% 30.22 in 10.0 mi South 8.1 mph - N/A   Clear
3:35 AM 46.4 °F 42.9 °F 35.6 °F 66% 30.23 in 10.0 mi SSW 6.9 mph - N/A   Clear
3:55 AM 46.4 °F 42.9 °F 35.6 °F 66% 30.22 in 10.0 mi South 6.9 mph - N/A   Clear
4:15 AM 44.6 °F 42.2 °F 35.6 °F 71% 30.23 in 10.0 mi SSW 4.6 mph - N/A   Clear
4:35 AM 44.6 °F 43.1 °F 35.6 °F 71% 30.24 in 10.0 mi SSW 3.5 mph - N/A   Clear
4:55 AM 42.8 °F 41.1 °F 35.6 °F 76% 30.23 in 10.0 mi South 3.5 mph - N/A   Clear
5:15 AM 41.0 °F 39.0 °F 35.6 °F 81% 30.24 in 10.0 mi South 3.5 mph - N/A   Clear
5:35 AM 41.0 °F 38.0 °F 37.4 °F 87% 30.24 in 10.0 mi South 4.6 mph - N/A   Clear
5:55 AM 41.0 °F 38.0 °F 37.4 °F 87% 30.24 in 10.0 mi South 4.6 mph - N/A   Clear
6:15 AM 41.0 °F 37.1 °F 37.4 °F 87% 30.24 in 10.0 mi South 5.8 mph - N/A   Clear
6:35 AM 41.0 °F 37.1 °F 37.4 °F 87% 30.24 in 10.0 mi South 5.8 mph - N/A   Clear
6:55 AM 41.0 °F 37.1 °F 39.2 °F 93% 30.23 in 10.0 mi South 5.8 mph - N/A   Clear
7:15 AM 41.0 °F 38.0 °F 39.2 °F 93% 30.24 in 10.0 mi South 4.6 mph - N/A   Clear
7:35 AM 42.8 °F 39.3 °F 41.0 °F 93% 30.24 in 10.0 mi South 5.8 mph - N/A   Clear
7:55 AM 44.6 °F 41.4 °F 41.0 °F 87% 30.24 in 10.0 mi South 5.8 mph - N/A   Clear
8:15 AM 46.4 °F 44.3 °F 42.8 °F 87% 30.25 in 10.0 mi South 4.6 mph - N/A   Clear
8:35 AM 46.4 °F 42.9 °F 42.8 °F 87% 30.25 in 10.0 mi South 6.9 mph - N/A   Clear
8:55 AM 48.2 °F - 42.8 °F 82% 30.25 in 10.0 mi SW 4.6 mph - N/A   Clear
9:15 AM 51.8 °F - 44.6 °F 76% 30.25 in 10.0 mi SW 5.8 mph - N/A   Clear
9:35 AM 51.8 °F - 44.6 °F 76% 30.25 in 10.0 mi SW 5.8 mph - N/A   Clear
9:55 AM 53.6 °F - 46.4 °F 77% 30.25 in 10.0 mi South 4.6 mph - N/A   Clear
10:15 AM 55.4 °F - 46.4 °F 72% 30.24 in 10.0 mi WSW 3.5 mph - N/A   Clear
10:35 AM 59.0 °F - 48.2 °F 67% 30.25 in 10.0 mi SW 4.6 mph - N/A   Clear
10:55 AM 60.8 °F - 50.0 °F 68% 30.24 in 10.0 mi SW 5.8 mph - N/A   Clear
11:15 AM 62.6 °F - 50.0 °F 63% 30.23 in 10.0 mi SSW 9.2 mph - N/A   Clear
11:35 AM 62.6 °F - 50.0 °F 63% 30.21 in 10.0 mi SW 8.1 mph - N/A   Scattered Clouds
11:55 AM 62.6 °F - 50.0 °F 63% 30.21 in 10.0 mi SSW 6.9 mph - N/A   Scattered Clouds
12:15 PM 64.4 °F - 51.8 °F 64% 30.19 in 10.0 mi SSW 9.2 mph - N/A   Scattered Clouds
12:35 PM 66.2 °F - 51.8 °F 60% 30.18 in 10.0 mi SSW 10.4 mph - N/A   Mostly Cloudy
12:55 PM 66.2 °F - 51.8 °F 60% 30.17 in 10.0 mi SW 12.7 mph 17.3 mph N/A   Scattered Clouds
1:15 PM 66.2 °F - 51.8 °F 60% 30.16 in 10.0 mi SSW 8.1 mph - N/A   Scattered Clouds
1:35 PM 66.2 °F - 51.8 °F 60% 30.15 in 10.0 mi SW 12.7 mph 18.4 mph N/A   Scattered Clouds
1:55 PM 68.0 °F - 51.8 °F 56% 30.14 in 10.0 mi SSW 8.1 mph - N/A   Clear
2:15 PM 69.8 °F - 53.6 °F 56% 30.13 in 10.0 mi SW 10.4 mph 18.4 mph N/A   Clear
2:35 PM 69.8 °F - 53.6 °F 56% 30.12 in 10.0 mi SW 9.2 mph 16.1 mph N/A   Scattered Clouds
2:55 PM 69.8 °F - 53.6 °F 56% 30.12 in 10.0 mi SSW 9.2 mph 17.3 mph N/A   Mostly Cloudy
3:15 PM 69.8 °F - 53.6 °F 56% 30.11 in 10.0 mi SSW 11.5 mph 18.4 mph N/A   Scattered Clouds
3:35 PM 68.0 °F - 53.6 °F 60% 30.12 in 10.0 mi SSW 9.2 mph 16.1 mph N/A   Mostly Cloudy
3:55 PM 68.0 °F - 51.8 °F 56% 30.12 in 10.0 mi SSW 11.5 mph - N/A   Overcast
4:15 PM 66.2 °F - 51.8 °F 60% 30.13 in 10.0 mi SW 6.9 mph - N/A   Mostly Cloudy
4:35 PM 66.2 °F - 51.8 °F 60% 30.13 in 10.0 mi SSW 6.9 mph 18.4 mph N/A   Mostly Cloudy
4:55 PM 64.4 °F - 53.6 °F 68% 30.12 in 10.0 mi South 6.9 mph - N/A   Clear
5:15 PM 62.6 °F - 51.8 °F 68% 30.12 in 10.0 mi South 6.9 mph - N/A   Clear
5:35 PM 62.6 °F - 53.6 °F 72% 30.13 in 10.0 mi South 5.8 mph - N/A   Clear
5:55 PM 60.8 °F - 53.6 °F 77% 30.14 in 10.0 mi South 3.5 mph - N/A   Clear
6:15 PM 60.8 °F - 53.6 °F 77% 30.14 in 10.0 mi South 5.8 mph - N/A   Clear
6:35 PM 59.0 °F - 53.6 °F 82% 30.15 in 10.0 mi SSE 3.5 mph - N/A   Scattered Clouds
6:55 PM 59.0 °F - 53.6 °F 82% 30.15 in 10.0 mi SSE 3.5 mph - N/A   Mostly Cloudy
7:15 PM 59.0 °F - 53.6 °F 82% 30.14 in 10.0 mi South 5.8 mph - N/A   Scattered Clouds
7:35 PM 59.0 °F - 55.4 °F 88% 30.15 in 10.0 mi South 5.8 mph - N/A   Scattered Clouds
7:55 PM 60.8 °F - 55.4 °F 82% 30.15 in 10.0 mi South 5.8 mph - N/A   Scattered Clouds
8:15 PM 60.8 °F - 55.4 °F 82% 30.15 in 10.0 mi SSW 5.8 mph - N/A   Clear
8:35 PM 60.8 °F - 55.4 °F 82% 30.16 in 10.0 mi South 5.8 mph - N/A   Clear
8:55 PM 59.0 °F - 55.4 °F 88% 30.16 in 10.0 mi SSW 4.6 mph - N/A   Clear
9:15 PM 60.8 °F - 55.4 °F 82% 30.16 in 10.0 mi SSW 5.8 mph - N/A   Clear
9:35 PM 60.8 °F - 55.4 °F 82% 30.16 in 10.0 mi SSW 6.9 mph - N/A   Clear
9:55 PM 57.2 °F - 53.6 °F 88% 30.16 in 10.0 mi SSW 3.5 mph - N/A   Clear
10:15 PM 57.2 °F - 53.6 °F 88% 30.15 in 10.0 mi South 5.8 mph - N/A   Clear
10:35 PM 57.2 °F - 53.6 °F 88% 30.16 in 10.0 mi South 5.8 mph - N/A   Clear
10:55 PM 55.4 °F - 53.6 °F 94% 30.16 in 10.0 mi South 4.6 mph - N/A   Clear
11:15 PM 55.4 °F - 53.6 °F 94% 30.16 in 10.0 mi South 4.6 mph - N/A   Clear
11:35 PM 55.4 °F - 53.6 °F 94% 30.16 in 10.0 mi South 5.8 mph - N/A   Clear
11:55 PM 53.6 °F - 51.8 °F 94% 30.15 in 10.0 mi South 5.8 mph - N/A   Clear